Wind_Speed
4 4 9 13 7 4 1 3 10 7 6 11 16 22 19 24 25 24 27 29 29 35 34 27 26 28 29 28 27 27 26 26 25 26 32 35 34 31 25 24 23 21 17 13
2 9 8 3 4 6 9 14 16 15 14 11 17 27 18 18 24 29 31 31 32 39 38 35 31 28 27 23 24 24 24 22 22 24 32 38 36 32 28 28 27 22 16 13
6 3 5 9 4 6 7 11 10 13 10 13 17 25 17 15 23 29 34 36 35 36 39 40 37 33 28 26 24 23 24 22 22 24 31 35 34 30 30 30 26 22 16 13
5 6 4 4 4 9 13 8 12 12 7 6 3 11 9 6 12 11 18 25 32 37 39 41 41 35 31 27 25 24 24 23 22 25 31 36 38 34 34 31 26 20 15 14
4 4 4 11 13 9 6 5 8 8 8 11 13 7 8 2 5 8 11 25 28 32 32 36 40 36 31 28 26 26 26 24 23 26 31 36 37 34 33 30 25 21 18 16
6 3 5 7 7 13 2 3 6 4 7 9 11 11 19 7 7 5 11 20 23 26 29 32 34 34 33 29 28 27 26 25 25 28 32 35 35 32 33 29 24 20 18 17
5 16 8 5 3 4 11 4 2 4 6 8 5 11 21 8 18 16 12 21 25 22 21 24 27 28 31 33 30 28 26 26 27 29 32 33 35 32 28 26 24 21 21 17
4 5 11 10 15 5 13 11 5 6 5 5 2 9 10 13 19 23 20 20 25 28 26 20 20 26 30 33 32 30 28 27 28 30 31 34 35 30 27 25 23 22 18 13
5 5 1 4 4 10 5 10 8 8 13 10 8 13 11 14 11 9 10 16 22 27 27 23 24 25 29 35 35 33 31 29 29 29 31 35 31 26 27 25 23 20 16 11
1 4 4 2 4 10 8 2 4 5 5 9 5 7 11 7 10 10 4 9 20 28 24 23 20 23 26 34 37 36 32 31 31 30 30 30 27 28 27 25 22 17 13 8
4 3 1 4 10 11 8 8 7 3 5 6 9 10 7 10 10 6 4 12 21 27 23 23 25 27 29 36 39 36 34 33 34 32 31 30 31 29 26 22 18 14 10 7
8 3 5 12 9 15 16 12 17 8 10 6 5 20 3 6 5 3 9 16 21 24 17 15 23 27 31 37 38 36 36 35 33 33 32 32 31 28 24 20 16 11 8 5
7 4 4 8 2 3 10 19 20 17 9 16 5 11 2 5 4 5 10 17 19 15 9 13 20 25 30 36 38 38 37 34 33 33 33 32 29 25 21 17 13 9 7 4
14 5 7 10 14 1 7 18 19 20 10 15 19 28 20 14 13 14 17 20 14 8 9 14 21 26 33 38 39 39 37 34 34 33 31 29 26 22 18 14 11 8 5 4
8 6 11 22 24 24 26 27 21 22 28 14 16 19 27 16 16 9 11 14 10 11 12 17 24 30 35 38 38 38 35 34 33 31 28 26 23 19 15 12 9 6 4 4
4 4 4 20 22 22 21 25 21 20 23 19 19 22 20 17 13 7 15 16 10 12 14 19 25 33 38 38 38 37 36 34 31 29 26 23 20 17 14 11 7 5 4 5
4 3 3 11 11 20 6 8 7 7 13 15 14 17 8 11 7 11 21 15 14 14 18 22 28 35 36 36 36 36 35 32 29 26 24 21 18 15 12 8 6 3 4 7
6 2 3 7 9 4 5 4 8 3 12 15 13 13 8 8 15 22 24 16 16 17 19 24 31 34 34 34 35 34 31 30 28 25 22 19 15 12 9 7 3 3 6 8
14 7 4 4 6 10 2 3 5 2 3 15 18 14 10 9 11 4 5 7 16 17 20 25 31 32 32 32 32 31 31 29 26 23 19 16 12 10 7 4 2 5 7 10
9 11 3 3 4 4 4 7 6 4 8 2 10 9 3 3 3 3 5 8 14 18 22 26 28 29 30 32 30 30 30 27 23 20 17 14 11 7 4 2 4 6 9 12
3 3 7 6 4 7 4 9 1 5 3 4 4 7 5 1 1 3 8 14 16 18 22 25 28 30 30 30 30 29 27 24 20 17 14 12 8 5 3 3 5 8 11 15
5 4 3 2 2 6 3 4 4 3 8 6 5 6 9 1 9 9 12 16 17 22 24 25 29 30 30 29 29 28 25 22 18 15 12 9 6 3 2 4 7 10 14 17
2 5 3 6 5 5 8 6 8 10 10 5 3 7 12 13 11 15 17 17 21 24 26 27 29 31 30 29 26 26 23 19 16 12 10 7 4 1 2 6 10 13 17 19
3 3 2 2 4 5 6 4 8 7 6 7 6 10 13 16 18 21 20 22 23 25 27 28 31 32 31 27 24 19 20 16 12 10 8 5 2 1 5 9 12 15 17 19
4 3 3 5 7 10 8 4 3 6 9 13 13 13 18 22 22 23 24 25 26 28 29 29 31 31 30 26 22 18 16 13 11 8 6 4 1 4 7 11 14 16 18 20
6 6 4 4 3 2 1 4 5 7 10 13 17 20 20 22 27 26 27 27 28 29 30 31 31 30 29 24 21 18 15 10 7 6 4 1 3 7 10 13 14 15 17 19
Wind_Direction
173 190 204 205 200 235 142 249 265 282 297 315 273 277 275 276 274 271 268 271 270 272 268 257 248 244 251 256 256 259 249 235 228 222 209 207 208 209 209 207 201 203 200 210
121 238 228 194 202 231 255 266 267 276 268 266 284 279 277 265 259 254 256 253 253 259 262 260 249 244 245 253 252 248 234 230 225 221 213 209 207 204 199 195 196 201 206 204
183 200 182 192 196 221 233 246 262 260 290 268 283 281 266 250 254 252 253 253 251 249 251 253 251 246 246 246 245 239 228 229 229 223 212 205 204 193 188 188 191 195 199 201
238 236 185 169 200 199 254 208 238 256 273 272 151 292 264 250 260 257 246 246 244 248 247 249 248 242 239 240 237 230 228 230 226 219 212 209 206 196 192 191 192 192 200 199
226 194 165 220 233 178 234 181 212 232 243 281 243 266 281 12 275 263 254 255 255 255 254 250 242 239 232 230 230 226 222 223 218 213 209 206 205 199 192 187 188 188 193 201
218 189 172 202 214 196 179 282 282 237 240 245 241 206 277 254 249 261 257 271 273 274 261 257 250 242 232 224 220 218 215 216 214 208 205 208 209 201 189 185 188 186 195 195
226 231 196 179 189 188 180 175 246 233 213 247 195 196 245 279 292 271 261 266 276 280 273 259 251 238 224 217 213 210 210 212 209 205 203 203 203 201 194 190 193 195 191 192
212 305 182 185 218 190 186 201 201 240 221 259 243 232 252 226 245 255 270 288 289 285 276 271 242 236 218 208 208 205 204 204 202 199 197 197 199 193 189 191 188 186 187 193
193 253 264 219 174 206 169 217 237 270 267 264 237 261 289 257 251 270 285 305 300 285 274 265 252 224 214 207 203 202 198 195 195 192 190 195 196 194 185 181 182 184 188 198
170 284 218 336 147 247 213 129 183 193 249 251 239 252 239 247 298 283 261 303 333 343 293 257 231 219 211 207 200 196 193 188 183 184 191 190 186 180 180 180 182 184 189 204
151 175 297 142 206 198 191 222 214 244 231 259 271 259 188 230 233 220 245 301 330 327 313 269 232 218 212 203 197 189 184 181 179 186 184 180 175 176 178 179 181 186 194 214
196 181 246 231 211 209 212 227 216 232 226 218 244 264 192 211 207 184 301 320 323 325 309 258 222 208 199 194 187 182 178 179 181 179 176 174 174 175 178 180 183 188 201 220
167 208 293 303 353 200 220 227 225 233 252 230 221 271 194 358 351 312 276 314 318 312 279 220 200 192 188 182 179 177 176 178 176 174 173 172 172 173 177 180 185 194 205 232
171 204 210 246 257 119 236 234 228 222 237 246 227 258 263 275 289 302 318 322 286 250 212 189 183 181 179 176 174 174 172 174 172 170 170 170 170 173 176 182 189 197 214 262
175 254 242 257 266 274 265 262 246 222 229 233 252 232 263 269 270 274 294 315 240 201 186 184 178 174 171 169 170 170 169 169 169 168 169 170 170 172 179 185 191 204 238 286
207 262 266 276 268 263 274 273 265 234 229 238 250 262 267 270 278 302 314 323 218 192 183 183 176 170 167 167 167 166 166 165 167 169 170 172 172 174 180 188 198 222 270 312
217 257 287 279 331 307 274 290 276 225 192 215 233 247 260 294 307 304 291 278 222 185 185 180 173 170 166 166 167 165 164 165 167 170 171 172 174 178 183 193 210 247 308 318
237 223 242 286 312 299 292 324 325 250 185 208 249 269 285 282 279 283 287 279 200 183 180 175 171 167 166 164 164 162 164 165 167 170 171 172 175 181 187 197 221 294 309 320
213 214 267 286 311 279 242 344 317 336 244 204 224 247 257 290 291 302 337 204 191 191 177 171 171 169 164 164 163 164 164 166 169 169 169 170 176 183 188 202 265 300 316 325
191 209 217 314 289 296 286 317 335 161 33 240 206 232 231 315 353 347 47 150 165 171 167 166 168 168 166 165 166 167 166 167 166 165 167 169 174 179 186 242 289 312 321 323
156 197 227 245 274 286 279 306 305 53 303 318 241 206 216 187 68 95 111 137 151 155 158 164 165 167 168 166 167 167 164 164 164 165 167 166 164 177 215 280 314 320 322 323
177 190 210 197 270 290 21 1 46 258 309 297 282 247 233 166 95 103 122 130 144 150 156 164 164 164 164 166 167 165 162 162 162 161 160 161 170 198 268 309 318 321 325 326
235 198 197 181 225 265 313 261 309 313 288 300 260 210 200 179 138 134 127 136 147 151 153 157 159 158 159 163 170 163 159 160 159 157 158 167 184 217 299 315 323 325 326 328
252 185 230 345 283 268 311 326 336 4 30 57 119 147 161 147 140 127 132 139 143 143 146 152 152 151 151 158 163 162 152 152 154 158 161 166 174 268 315 323 326 329 331 332
215 136 210 260 280 277 283 278 358 66 87 96 105 120 133 137 132 135 136 138 138 138 141 147 148 146 145 151 150 145 145 150 152 154 156 162 225 313 322 326 332 334 337 337
187 199 175 227 266 233 62 140 126 115 108 109 119 121 125 134 134 138 135 134 134 136 140 142 141 142 139 143 140 138 140 142 150 152 154 181 314 325 331 334 335 336 333 332
Height
1486 1488 1486 1484 1488 1488 1490 1491 1488 1484 1484 1484 1474 1463 1463 1461 1458 1456 1454 1452 1451 1451 1455 1457 1458 1461 1464 1466 1468 1468 1470 1471 1472 1474 1478 1484 1488 1492 1497 1502 1504 1508 1509 1512
1488 1483 1482 1485 1487 1489 1488 1487 1482 1481 1483 1484 1475 1449 1453 1451 1444 1443 1443 1442 1442 1443 1445 1448 1451 1453 1456 1460 1461 1461 1463 1466 1468 1470 1472 1477 1482 1487 1493 1497 1501 1504 1506 1508
1481 1478 1476 1482 1487 1489 1489 1488 1488 1487 1484 1480 1474 1440 1433 1427 1429 1431 1432 1431 1432 1433 1434 1439 1441 1445 1448 1452 1454 1455 1458 1461 1463 1465 1467 1473 1480 1485 1490 1494 1498 1500 1503 1505
1480 1476 1478 1483 1485 1486 1486 1483 1483 1485 1488 1482 1475 1447 1427 1425 1423 1423 1424 1423 1421 1422 1424 1427 1431 1436 1440 1444 1448 1449 1453 1456 1458 1461 1464 1468 1473 1478 1484 1489 1494 1498 1501 1503
1473 1474 1477 1479 1477 1481 1478 1478 1481 1481 1483 1481 1473 1476 1416 1427 1425 1422 1416 1413 1412 1413 1414 1416 1420 1426 1432 1436 1440 1443 1447 1451 1454 1457 1462 1466 1470 1475 1481 1485 1491 1494 1497 1501
1470 1471 1471 1471 1470 1473 1474 1479 1478 1478 1479 1465 1455 1465 1411 1418 1414 1412 1409 1409 1408 1408 1408 1409 1413 1419 1424 1429 1433 1438 1442 1446 1451 1454 1458 1463 1467 1472 1477 1482 1488 1491 1495 1498
1464 1462 1463 1467 1470 1471 1473 1477 1474 1471 1465 1450 1447 1453 1416 1412 1409 1410 1406 1403 1402 1403 1403 1404 1407 1410 1415 1421 1426 1432 1438 1442 1447 1452 1456 1461 1467 1471 1475 1480 1484 1487 1491 1495
1465 1464 1459 1461 1461 1463 1467 1469 1464 1459 1454 1449 1451 1435 1407 1404 1401 1399 1398 1400 1399 1397 1400 1399 1400 1404 1408 1413 1419 1426 1432 1437 1443 1449 1454 1460 1465 1469 1473 1478 1482 1486 1489 1492
1460 1461 1456 1457 1458 1461 1464 1462 1460 1459 1451 1448 1430 1416 1407 1399 1400 1398 1398 1398 1394 1391 1390 1391 1395 1398 1402 1406 1412 1419 1425 1432 1440 1447 1452 1457 1463 1467 1471 1476 1481 1484 1486 1489
1458 1463 1455 1453 1457 1456 1456 1457 1458 1459 1449 1435 1418 1422 1400 1396 1390 1389 1395 1392 1388 1384 1383 1385 1387 1393 1397 1403 1409 1415 1422 1428 1436 1445 1451 1456 1461 1466 1471 1475 1479 1482 1484 1487
1452 1459 1457 1454 1451 1444 1451 1452 1450 1447 1438 1426 1414 1390 1388 1385 1385 1387 1388 1388 1384 1380 1377 1378 1382 1387 1391 1398 1405 1413 1420 1426 1434 1442 1448 1453 1459 1466 1471 1475 1478 1480 1482 1485
1449 1453 1452 1445 1434 1433 1433 1432 1435 1434 1423 1425 1423 1377 1378 1382 1383 1385 1384 1383 1380 1376 1372 1373 1377 1381 1386 1394 1403 1412 1420 1426 1434 1440 1446 1453 1458 1464 1470 1474 1477 1479 1481 1483
1446 1452 1449 1438 1432 1429 1429 1419 1417 1418 1420 1411 1415 1369 1373 1381 1382 1382 1381 1379 1376 1373 1372 1372 1374 1380 1386 1394 1402 1411 1418 1426 1434 1440 1447 1453 1458 1463 1468 1472 1475 1478 1479 1481
1441 1443 1441 1430 1410 1415 1422 1413 1409 1412 1407 1391 1392 1376 1375 1380 1382 1379 1378 1377 1375 1373 1373 1373 1375 1380 1387 1395 1402 1410 1418 1427 1434 1441 1448 1454 1458 1463 1468 1471 1474 1476 1477 1478
1442 1434 1432 1421 1414 1409 1405 1397 1397 1397 1386 1396 1375 1389 1371 1379 1379 1377 1375 1373 1372 1373 1373 1375 1377 1381 1388 1396 1404 1412 1419 1428 1435 1442 1449 1455 1458 1462 1467 1470 1473 1474 1475 1476
1436 1428 1426 1410 1405 1397 1393 1383 1380 1381 1383 1386 1386 1381 1371 1372 1374 1373 1370 1369 1371 1373 1374 1376 1380 1384 1390 1398 1405 1413 1421 1429 1437 1443 1450 1455 1458 1462 1465 1469 1471 1472 1473 1474
1430 1428 1422 1399 1390 1386 1377 1372 1366 1366 1372 1374 1379 1366 1369 1367 1367 1369 1368 1367 1368 1371 1373 1377 1382 1387 1394 1401 1408 1415 1423 1431 1438 1444 1450 1454 1457 1461 1465 1468 1469 1470 1471 1471
1424 1426 1424 1404 1395 1378 1372 1369 1366 1362 1367 1372 1370 1367 1367 1366 1366 1365 1364 1361 1365 1369 1373 1378 1384 1391 1398 1405 1413 1419 1426 1433 1439 1445 1449 1453 1457 1461 1464 1466 1468 1469 1469 1468
1416 1421 1414 1403 1393 1378 1366 1367 1367 1365 1362 1364 1368 1366 1365 1366 1366 1363 1362 1362 1365 1368 1374 1381 1388 1396 1402 1410 1415 1421 1429 1435 1441 1445 1449 1453 1457 1460 1463 1465 1466 1466 1466 1465
1409 1412 1412 1405 1397 1389 1369 1365 1363 1364 1362 1362 1363 1366 1367 1366 1362 1365 1364 1365 1367 1372 1377 1383 1392 1400 1406 1412 1418 1425 1431 1437 1441 1445 1449 1453 1457 1460 1462 1464 1464 1464 1464 1463
1407 1408 1407 1403 1396 1386 1372 1365 1363 1366 1372 1362 1363 1367 1367 1368 1371 1368 1367 1369 1372 1376 1381 1388 1395 1402 1409 1414 1421 1428 1434 1438 1442 1445 1449 1453 1457 1460 1461 1462 1462 1462 1461 1459
1399 1400 1397 1398 1397 1394 1371 1367 1368 1371 1364 1363 1363 1362 1363 1364 1367 1368 1370 1371 1375 1378 1384 1391 1397 1405 1412 1418 1425 1430 1434 1439 1443 1447 1450 1454 1456 1458 1459 1461 1461 1459 1458 1455
1401 1395 1391 1392 1386 1371 1369 1369 1369 1367 1364 1362 1362 1362 1363 1366 1369 1372 1373 1377 1381 1384 1389 1395 1401 1407 1415 1422 1428 1431 1436 1441 1445 1448 1451 1454 1456 1458 1459 1459 1458 1457 1454 1451
1390 1389 1389 1386 1373 1370 1368 1369 1367 1365 1363 1360 1361 1362 1365 1367 1372 1374 1379 1384 1388 1390 1394 1400 1405 1411 1417 1425 1432 1436 1439 1443 1446 1449 1451 1454 1456 1457 1457 1457 1456 1453 1451 1447
1389 1388 1385 1383 1373 1369 1368 1369 1368 1368 1366 1364 1365 1367 1368 1371 1375 1379 1385 1389 1393 1395 1400 1406 1410 1415 1422 1430 1435 1439 1442 1445 1448 1451 1453 1454 1455 1456 1456 1454 1452 1450 1447 1444
1382 1379 1381 1376 1370 1371 1370 1370 1371 1371 1369 1369 1369 1372 1375 1378 1380 1385 1390 1394 1396 1401 1406 1411 1417 1422 1428 1434 1438 1441 1445 1448 1450 1451 1453 1454 1454 1454 1453 1451 1449 1447 1445 1441